Regional Weather Roundup
Issued by NWS

Home | Current Version | Previous Version | Text Only | Print | Product List | Glossary On
Versions: 1 2 3 4 5 6 7 8 9 10 11 12 13 14 15 16 17 18 19 20 21 22 23 24 25 26 27 28 29 30 31 32 33 34 35 36 37 38 39 40 41 42 43 44 45 46 47 48 49 50
000
ASCA42 TJSJ 211511
RWRPR
PUERTO RICO/U.S. VIRGIN ISLANDS HOURLY WEATHER ROUNDUP
NATIONAL WEATHER SERVICE SAN JUAN PR
1100 AM AST SUN DEC 21 2014

PRZ001-004-211600-
PUERTO RICO

CITY           SKY/WX    TMP DP  RH WIND       PRES   REMARKS
SAN JUAN LMM   MOSUNNY   82  70  65 E13       30.10F
PONCE          MOSUNNY   88  66  48 SE12      30.04R HX  90
AGUADILLA      MOSUNNY   81  68  65 E21G26    30.11S
CEIBA          SUNNY     82  70  65 E8        30.13S
$$

PRZ006-007-211600-
U.S. VIRGIN ISLANDS

CITY           SKY/WX    TMP DP  RH WIND       PRES   REMARKS
CHRISTIANSTED  MOSUNNY   82  72  69 NE14      30.09
$$

HOURLY WEATHER ROUNDUP FOR THE NEWS MEDIA

CITY           SKY/WX    TMP DP  RH WIND       PRES   REMARKS
MIAMI          PTSUNNY   77  65  66 SE9       30.11R
ORLANDO        MOSUNNY   70  63  78 S3        30.12R
NEW YORK       CLOUDY    35  25  66 NW6       30.33R WCI  30
NEWARK         CLOUDY    33  26  75 NW7       30.33R WCI  27
CHICAGO        CLOUDY    33  27  78 S12       30.19F WCI  24
HARTFORD       CLOUDY    37  37 100 CALM      30.30R
BOSTON         CLOUDY    30  25  81 N9        30.34R WCI  22
DALLAS         CLOUDY    48  43  82 S12       30.10S
PHILADELPHIA   MOSUNNY   36  20  52 NW6       30.36R WCI  31


USA.gov is the U.S. government's official web portal to all federal, state and local government web resources and services.